| time (UTC) | temp C | wind direction | speed KPH | gust KPH | rain 1hr cm | rain 24hr cm | rain mn cm | humidity % | barometer mb |
| 20260905084504 | 20 | 207 | 0.0 | 0.0 | 0.00 | 0.33 | 0.00 | 98 | 1014.0 |
| 20260905084003 | 20 | 207 | 0.0 | 0.0 | 0.00 | 0.33 | 0.00 | 98 | 1014.0 |
| 20260905083504 | 20 | 207 | 0.0 | 0.0 | 0.00 | 0.33 | 0.00 | 98 | 1013.8 |
| 20260905083012 | 20 | 207 | 0.0 | 0.0 | 0.00 | 0.33 | 0.00 | 98 | 1013.7 |
| 20260905082502 | 20 | 207 | 0.0 | 0.0 | 0.00 | 0.33 | 0.00 | 98 | 1013.6 |
| 20260905082003 | 20 | 207 | 0.0 | 0.0 | 0.00 | 0.33 | 0.00 | 98 | 1013.4 |
| 20260905081516 | 20 | 207 | 0.0 | 0.0 | 0.00 | 0.33 | 0.00 | 98 | 1013.7 |
| 20260905081009 | 20 | 207 | 0.0 | 0.0 | 0.00 | 0.33 | 0.00 | 98 | 1013.8 |
| 20260905080503 | 20 | 207 | 0.0 | 0.0 | 0.00 | 0.33 | 0.00 | 98 | 1013.9 |
| 20260905080020 | 20 | 207 | 0.0 | 0.0 | 0.00 | 0.33 | 0.00 | 98 | 1014.0 |
| 20260905075508 | 20 | 207 | 0.0 | 0.0 | 0.00 | 0.33 | 0.00 | 97 | 1014.0 |
| 20260905075003 | 20 | 207 | 0.0 | 3.2 | 0.00 | 0.33 | 0.00 | 97 | 1014.1 |
| 20260905074517 | 20 | 207 | 0.0 | 3.2 | 0.00 | 0.33 | 0.00 | 97 | 1014.2 |
| 20260905074007 | 20 | 207 | 1.6 | 3.2 | 0.00 | 0.33 | 0.00 | 98 | 1014.0 |
| 20260905073513 | 20 | 207 | 0.0 | 3.2 | 0.00 | 0.33 | 0.00 | 97 | 1014.0 |
| 20260905073012 | 20 | 207 | 0.0 | 3.2 | 0.00 | 0.33 | 0.00 | 97 | 1014.0 |
| 20260905072504 | 20 | 207 | 1.6 | 3.2 | 0.00 | 0.33 | 0.00 | 97 | 1014.1 |
| 20260905072005 | 20 | 207 | 0.0 | 1.6 | 0.00 | 0.33 | 0.00 | 97 | 1014.3 |
| 20260905071514 | 20 | 207 | 0.0 | 1.6 | 0.00 | 0.33 | 0.00 | 97 | 1014.2 |
| 20260905071007 | 20 | 207 | 0.0 | 3.2 | 0.00 | 0.33 | 0.00 | 97 | 1014.2 |
| 20260905070504 | 20 | 207 | 0.0 | 4.8 | 0.00 | 0.33 | 0.00 | 98 | 1014.3 |
| 20260905070028 | 20 | 207 | 0.0 | 4.8 | 0.00 | 0.33 | 0.00 | 98 | 1014.3 |
| 20260905065503 | 20 | 198 | 1.6 | 3.2 | 0.00 | 0.33 | 0.00 | 97 | 1014.3 |
| 20260905065005 | 20 | 159 | 0.0 | 3.2 | 0.00 | 0.33 | 0.00 | 97 | 1014.4 |
| 20260905064525 | 20 | 101 | 0.0 | 6.4 | 0.00 | 0.33 | 0.00 | 97 | 1014.5 |
| 20260905064009 | 20 | 101 | 0.0 | 6.4 | 0.00 | 0.33 | 0.00 | 97 | 1014.7 |
| 20260905063507 | 20 | 119 | 3.2 | 4.8 | 0.00 | 0.33 | 0.00 | 98 | 1014.9 |
| 20260905063023 | 20 | 312 | 1.6 | 4.8 | 0.00 | 0.33 | 0.00 | 97 | 1014.6 |
| 20260905062511 | 20 | 312 | 0.0 | 4.8 | 0.00 | 0.33 | 0.00 | 98 | 1014.2 |
| 20260905062011 | 20 | 29 | 0.0 | 3.2 | 0.00 | 0.33 | 0.00 | 97 | 1014.4 |
| 20260905061518 | 20 | 29 | 0.0 | 1.6 | 0.00 | 0.33 | 0.00 | 97 | 1014.7 |
| 20260905061013 | 20 | 29 | 0.0 | 1.6 | 0.00 | 0.33 | 0.00 | 97 | 1014.8 |
| 20260905060507 | 20 | 29 | 0.0 | 0.0 | 0.00 | 0.33 | 0.00 | 97 | 1014.8 |
| 20260905060014 | 20 | 29 | 0.0 | 0.0 | 0.00 | 0.33 | 0.00 | 97 | 1014.9 |
| 20260905055507 | 20 | 29 | 0.0 | 0.0 | 0.00 | 0.33 | 0.00 | 98 | 1015.0 |
| 20260905055011 | 20 | 29 | 0.0 | 1.6 | 0.00 | 0.33 | 0.00 | 97 | 1015.2 |
| 20260905054524 | 20 | 29 | 0.0 | 1.6 | 0.00 | 0.33 | 0.00 | 98 | 1015.2 |
| 20260905054006 | 20 | 29 | 0.0 | 3.2 | 0.00 | 0.33 | 0.00 | 97 | 1015.3 |
| 20260905053512 | 20 | 29 | 0.0 | 3.2 | 0.00 | 0.33 | 0.00 | 97 | 1015.3 |
| 20260905053030 | 20 | 29 | 0.0 | 1.6 | 0.00 | 0.33 | 0.00 | 97 | 1015.2 |
| 20260905052515 | 20 | 29 | 0.0 | 1.6 | 0.00 | 0.33 | 0.00 | 98 | 1015.2 |
| 20260905052011 | 20 | 29 | 0.0 | 1.6 | 0.00 | 0.33 | 0.00 | 97 | 1015.3 |
| 20260905051530 | 20 | 29 | 0.0 | 3.2 | 0.00 | 0.33 | 0.00 | 98 | 1015.5 |
| 20260905051014 | 20 | 29 | 0.0 | 3.2 | 0.00 | 0.33 | 0.00 | 98 | 1015.5 |
| 20260905050507 | 20 | 29 | 0.0 | 0.0 | 0.00 | 0.33 | 0.00 | 97 | 1015.5 |
| 20260905050025 | 20 | 29 | 0.0 | 0.0 | 0.00 | 0.33 | 0.00 | 97 | 1015.7 |
| 20260905045514 | 20 | 29 | 0.0 | 0.0 | 0.00 | 0.33 | 0.00 | 97 | 1015.6 |
| 20260905045015 | 20 | 29 | 0.0 | 0.0 | 0.00 | 0.33 | 0.00 | 97 | 1015.7 |
| 20260905044520 | 20 | 29 | 0.0 | 0.0 | 0.00 | 0.33 | 0.00 | 97 | 1015.4 |
| 20260905044008 | 20 | 29 | 0.0 | 0.0 | 0.00 | 0.33 | 0.00 | 97 | 1015.5 |
| 20260905043511 | 20 | 29 | 0.0 | 0.0 | 0.00 | 0.33 | 0.00 | 97 | 1015.5 |
| 20260905043028 | 20 | 29 | 0.0 | 0.0 | 0.00 | 0.33 | 0.00 | 97 | 1015.4 |
| 20260905042511 | 20 | 29 | 0.0 | 0.0 | 0.00 | 0.33 | 0.00 | 97 | 1015.4 |
| 20260905042016 | 20 | 29 | 0.0 | 0.0 | 0.00 | 0.33 | 0.00 | 97 | 1015.4 |
| 20260905041534 | 20 | 29 | 0.0 | 0.0 | 0.00 | 0.33 | 0.00 | 97 | 1015.5 |
| 20260905041009 | 20 | 29 | 0.0 | 1.6 | 0.00 | 0.33 | 0.00 | 96 | 1015.5 |
| 20260905040514 | 20 | 29 | 0.0 | 3.2 | 0.00 | 0.33 | 0.00 | 96 | 1015.5 |
| 20260905040033 | 20 | 29 | 0.0 | 3.2 | 0.00 | 0.33 | 0.00 | 96 | 1015.6 |
| 20260905035513 | 20 | 29 | 0.0 | 0.0 | 0.00 | 0.33 | 0.33 | 96 | 1015.5 |
| 20260905035008 | 20 | 29 | 0.0 | 0.0 | 0.00 | 0.33 | 0.33 | 96 | 1015.5 |
| 20260905034533 | 20 | 29 | 0.0 | 0.0 | 0.00 | 0.33 | 0.33 | 96 | 1015.5 |
| 20260905034016 | 20 | 29 | 0.0 | 0.0 | 0.00 | 0.33 | 0.33 | 96 | 1015.4 |
| 20260905033513 | 20 | 29 | 0.0 | 0.0 | 0.00 | 0.33 | 0.33 | 96 | 1015.4 |
| 20260905033022 | 20 | 29 | 0.0 | 0.0 | 0.00 | 0.33 | 0.33 | 96 | 1015.4 |
| 20260905032513 | 20 | 29 | 0.0 | 0.0 | 0.00 | 0.33 | 0.33 | 96 | 1015.5 |
| 20260905032014 | 20 | 29 | 0.0 | 0.0 | 0.00 | 0.33 | 0.33 | 95 | 1015.4 |
| 20260905031531 | 20 | 29 | 0.0 | 0.0 | 0.00 | 0.33 | 0.33 | 95 | 1015.4 |
| 20260905031013 | 21 | 29 | 0.0 | 0.0 | 0.00 | 0.33 | 0.33 | 95 | 1015.4 |
| 20260905030515 | 21 | 29 | 0.0 | 0.0 | 0.00 | 0.33 | 0.33 | 95 | 1015.4 |
| 20260905030035 | 21 | 29 | 0.0 | 0.0 | 0.00 | 0.33 | 0.33 | 95 | 1015.4 |
| 20260905025509 | 21 | 29 | 0.0 | 0.0 | 0.00 | 0.33 | 0.33 | 95 | 1015.5 |
| 20260905025016 | 21 | 29 | 0.0 | 0.0 | 0.00 | 0.33 | 0.33 | 95 | 1015.5 |
| 20260905024534 | 21 | 29 | 0.0 | 0.0 | 0.00 | 0.33 | 0.33 | 95 | 1015.6 |
| 20260905024016 | 21 | 29 | 0.0 | 0.0 | 0.00 | 0.33 | 0.33 | 95 | 1015.6 |
| 20260905023516 | 21 | 29 | 0.0 | 0.0 | 0.00 | 0.33 | 0.33 | 95 | 1015.6 |
| 20260905023034 | 21 | 29 | 0.0 | 0.0 | 0.00 | 0.36 | 0.33 | 95 | 1015.7 |
| 20260905022514 | 21 | 29 | 0.0 | 0.0 | 0.00 | 0.36 | 0.33 | 95 | 1015.9 |
| 20260905022011 | 21 | 29 | 0.0 | 0.0 | 0.00 | 0.36 | 0.33 | 95 | 1015.7 |
| 20260905021534 | 21 | 29 | 0.0 | 0.0 | 0.00 | 0.36 | 0.33 | 95 | 1015.8 |
| 20260905021012 | 21 | 29 | 0.0 | 0.0 | 0.00 | 0.36 | 0.33 | 95 | 1015.8 |
| 20260905020516 | 21 | 29 | 0.0 | 1.6 | 0.00 | 0.36 | 0.33 | 95 | 1015.8 |
| 20260905020043 | 21 | 29 | 0.0 | 1.6 | 0.00 | 0.36 | 0.33 | 94 | 1015.8 |
| 20260905015503 | 21 | 29 | 0.0 | 1.6 | 0.00 | 0.36 | 0.33 | 94 | 1015.8 |
| 20260905015004 | 21 | 29 | 0.0 | 1.6 | 0.00 | 0.36 | 0.33 | 94 | 1015.7 |
| 20260905014514 | 21 | 29 | 0.0 | 1.6 | 0.00 | 0.36 | 0.33 | 94 | 1015.7 |
| 20260905014003 | 21 | 29 | 0.0 | 0.0 | 0.00 | 0.36 | 0.33 | 94 | 1015.7 |
| 20260905013505 | 21 | 29 | 0.0 | 0.0 | 0.00 | 0.36 | 0.33 | 94 | 1015.7 |
| 20260905013027 | 21 | 29 | 0.0 | 0.0 | 0.00 | 0.36 | 0.33 | 93 | 1015.7 |
| 20260905012509 | 21 | 29 | 0.0 | 1.6 | 0.00 | 0.36 | 0.33 | 93 | 1015.7 |
| 20260905012004 | 22 | 29 | 0.0 | 1.6 | 0.00 | 0.36 | 0.33 | 93 | 1015.7 |
| 20260905011521 | 22 | 29 | 0.0 | 0.0 | 0.00 | 0.36 | 0.33 | 93 | 1015.7 |
| 20260905011012 | 22 | 29 | 0.0 | 0.0 | 0.00 | 0.36 | 0.33 | 92 | 1015.7 |
| 20260905010512 | 22 | 29 | 0.0 | 1.6 | 0.00 | 0.36 | 0.33 | 92 | 1015.7 |
| 20260905010011 | 22 | 29 | 0.0 | 1.6 | 0.00 | 0.36 | 0.33 | 92 | 1015.7 |
| 20260905005513 | 22 | 29 | 0.0 | 0.0 | 0.00 | 0.36 | 0.33 | 92 | 1015.6 |
| 20260905005010 | 22 | 29 | 0.0 | 0.0 | 0.00 | 0.36 | 0.33 | 91 | 1015.5 |
| 20260905004512 | 22 | 29 | 0.0 | 0.0 | 0.00 | 0.36 | 0.33 | 91 | 1015.5 |
| 20260905004005 | 22 | 29 | 0.0 | 0.0 | 0.00 | 0.36 | 0.33 | 90 | 1015.5 |
| 20260905003505 | 23 | 29 | 0.0 | 3.2 | 0.00 | 0.36 | 0.33 | 90 | 1015.5 |
| 20260905003010 | 23 | 29 | 0.0 | 3.2 | 0.00 | 0.36 | 0.33 | 89 | 1015.4 |
| 20260905002504 | 23 | 29 | 0.0 | 1.6 | 0.00 | 0.36 | 0.33 | 89 | 1015.4 |
| 20260905002006 | 23 | 29 | 0.0 | 1.6 | 0.00 | 0.36 | 0.33 | 88 | 1015.2 |
| 20260905001520 | 23 | 29 | 0.0 | 1.6 | 0.00 | 0.36 | 0.33 | 88 | 1015.1 |
| 20260905001009 | 23 | 29 | 0.0 | 3.2 | 0.00 | 0.36 | 0.33 | 87 | 1015.3 |
| 20260905000504 | 24 | 29 | 0.0 | 3.2 | 0.00 | 0.36 | 0.33 | 87 | 1015.4 |
| 20260905000023 | 24 | 29 | 0.0 | 3.2 | 0.00 | 0.36 | 0.33 | 87 | 1015.3 |
| 20260904235513 | 24 | 29 | 0.0 | 3.2 | 0.00 | 0.36 | 0.33 | 86 | 1015.4 |
| 20260904235003 | 25 | 29 | 0.0 | 4.8 | 0.00 | 0.36 | 0.33 | 86 | 1015.2 |
| 20260904234519 | 25 | 21 | 1.6 | 4.8 | 0.00 | 0.38 | 0.33 | 85 | 1015.1 |
| 20260904234010 | 25 | 73 | 0.0 | 3.2 | 0.00 | 0.41 | 0.33 | 85 | 1015.4 |
| 20260904233516 | 25 | 73 | 0.0 | 4.8 | 0.00 | 0.43 | 0.33 | 85 | 1015.4 |
| 20260904233012 | 25 | 73 | 0.0 | 4.8 | 0.00 | 0.46 | 0.33 | 86 | 1015.5 |
| 20260904232508 | 25 | 84 | 0.0 | 1.6 | 0.00 | 0.58 | 0.33 | 86 | 1015.5 |
| 20260904232005 | 24 | 84 | 0.0 | 1.6 | 0.00 | 0.76 | 0.33 | 88 | 1015.6 |
| 20260904231511 | 24 | 84 | 0.0 | 1.6 | 0.00 | 0.89 | 0.33 | 88 | 1015.8 |
| 20260904231008 | 24 | 84 | 0.0 | 3.2 | 0.00 | 1.12 | 0.33 | 88 | 1015.8 |
| 20260904230507 | 24 | 84 | 0.0 | 3.2 | 0.00 | 1.37 | 0.33 | 88 | 1015.9 |
| 20260904230016 | 24 | 101 | 0.0 | 4.8 | 0.00 | 1.55 | 0.33 | 88 | 1015.9 |
| 20260904225507 | 24 | 101 | 1.6 | 6.4 | 0.00 | 1.55 | 0.33 | 88 | 1015.9 |
| 20260904225009 | 24 | 86 | 0.0 | 6.4 | 0.00 | 1.55 | 0.33 | 88 | 1015.9 |
| 20260904224524 | 24 | 114 | 3.2 | 4.8 | 0.00 | 1.55 | 0.33 | 88 | 1015.9 |
| 20260904224014 | 24 | 84 | 1.6 | 4.8 | 0.00 | 1.55 | 0.33 | 87 | 1015.8 |
| 20260904223508 | 25 | 80 | 1.6 | 6.4 | 0.00 | 1.75 | 0.33 | 87 | 1015.7 |
| 20260904223023 | 25 | 105 | 1.6 | 6.4 | 0.00 | 1.91 | 0.33 | 87 | 1015.6 |
| 20260904222516 | 25 | 94 | 0.0 | 4.8 | 0.00 | 2.03 | 0.33 | 86 | 1015.4 |
| 20260904222017 | 25 | 94 | 1.6 | 4.8 | 0.00 | 2.03 | 0.33 | 86 | 1015.3 |
| 20260904221518 | 25 | 94 | 0.0 | 4.8 | 0.00 | 2.03 | 0.33 | 86 | 1015.3 |
| 20260904221011 | 25 | 94 | 1.6 | 4.8 | 0.00 | 2.03 | 0.33 | 86 | 1015.2 |
| 20260904220519 | 25 | 78 | 1.6 | 4.8 | 0.00 | 2.03 | 0.33 | 85 | 1015.0 |
| 20260904220017 | 25 | 78 | 0.0 | 4.8 | 0.00 | 2.03 | 0.33 | 84 | 1015.0 |
| 20260904215509 | 25 | 65 | 0.0 | 4.8 | 0.00 | 2.03 | 0.33 | 85 | 1015.0 |
| 20260904215007 | 25 | 54 | 1.6 | 4.8 | 0.00 | 2.03 | 0.33 | 85 | 1014.9 |
| 20260904214523 | 25 | 5 | 0.0 | 3.2 | 0.00 | 2.03 | 0.33 | 85 | 1014.8 |
| 20260904214010 | 25 | 5 | 0.0 | 3.2 | 0.00 | 2.03 | 0.33 | 84 | 1014.7 |
| 20260904213510 | 25 | 286 | 0.0 | 1.6 | 0.00 | 2.03 | 0.33 | 83 | 1014.5 |
| 20260904213026 | 25 | 286 | 0.0 | 6.4 | 0.00 | 2.03 | 0.33 | 84 | 1014.4 |
| 20260904212515 | 25 | 286 | 0.0 | 6.4 | 0.00 | 2.03 | 0.33 | 83 | 1014.2 |
| 20260904212007 | 25 | 319 | 1.6 | 6.4 | 0.00 | 2.03 | 0.33 | 83 | 1014.2 |
| 20260904211530 | 25 | 41 | 1.6 | 6.4 | 0.00 | 2.03 | 0.33 | 83 | 1014.3 |
| 20260904211021 | 25 | 52 | 1.6 | 8.0 | 0.00 | 2.03 | 0.33 | 83 | 1014.4 |
| 20260904210510 | 25 | 337 | 3.2 | 8.0 | 0.00 | 2.03 | 0.33 | 82 | 1014.2 |
| 20260904210032 | 25 | 28 | 1.6 | 11.3 | 0.00 | 2.03 | 0.33 | 82 | 1014.2 |
| 20260904205519 | 25 | 50 | 3.2 | 11.3 | 0.00 | 2.03 | 0.33 | 81 | 1014.2 |
| 20260904205017 | 25 | 5 | 3.2 | 11.3 | 0.00 | 2.03 | 0.33 | 80 | 1014.3 |
| 20260904204518 | 26 | 5 | 4.8 | 8.0 | 0.00 | 2.03 | 0.33 | 82 | 1014.4 |
| 20260904204012 | 25 | 343 | 0.0 | 6.4 | 0.00 | 2.03 | 0.33 | 80 | 1014.6 |
| 20260904203511 | 26 | 355 | 0.0 | 6.4 | 0.00 | 2.03 | 0.33 | 79 | 1014.7 |
| 20260904203027 | 26 | 136 | 1.6 | 6.4 | 0.00 | 2.03 | 0.33 | 79 | 1014.9 |
| 20260904202512 | 26 | 53 | 3.2 | 6.4 | 0.00 | 2.03 | 0.33 | 82 | 1014.9 |
| 20260904202014 | 25 | 88 | 1.6 | 6.4 | 0.00 | 2.03 | 0.33 | 83 | 1015.1 |
| 20260904201530 | 25 | 149 | 0.0 | 3.2 | 0.00 | 2.03 | 0.33 | 84 | 1015.2 |
| 20260904201010 | 25 | 300 | 1.6 | 4.8 | 0.00 | 2.03 | 0.33 | 82 | 1015.1 |
| 20260904200514 | 25 | 134 | 0.0 | 6.4 | 0.00 | 2.03 | 0.33 | 84 | 1015.3 |
| 20260904200032 | 25 | 126 | 1.6 | 6.4 | 0.00 | 2.03 | 0.33 | 83 | 1015.4 |
| 20260904195517 | 25 | 49 | 3.2 | 6.4 | 0.00 | 2.03 | 0.33 | 83 | 1015.4 |
| 20260904195011 | 25 | 116 | 0.0 | 9.7 | 0.00 | 2.03 | 0.33 | 84 | 1015.6 |
| 20260904194531 | 25 | 114 | 3.2 | 9.7 | 0.00 | 2.03 | 0.33 | 85 | 1015.7 |
| 20260904194017 | 25 | 144 | 1.6 | 6.4 | 0.00 | 2.03 | 0.33 | 85 | 1015.7 |
| 20260904193519 | 24 | 34 | 0.0 | 14.5 | 0.00 | 2.03 | 0.33 | 85 | 1015.9 |
| 20260904193031 | 24 | 65 | 4.8 | 14.5 | 0.00 | 2.03 | 0.33 | 86 | 1015.8 |
| 20260904192510 | 24 | 82 | 3.2 | 6.4 | 0.00 | 2.03 | 0.33 | 87 | 1015.7 |
| 20260904192017 | 24 | 121 | 1.6 | 8.0 | 0.00 | 2.03 | 0.33 | 88 | 1015.9 |
| 20260904191525 | 24 | 57 | 3.2 | 8.0 | 0.00 | 2.03 | 0.33 | 87 | 1015.6 |
| 20260904191015 | 24 | 55 | 1.6 | 8.0 | 0.00 | 2.03 | 0.33 | 87 | 1015.4 |
| 20260904190518 | 24 | 89 | 3.2 | 8.0 | 0.00 | 2.03 | 0.33 | 86 | 1015.5 |
| 20260904190031 | 24 | 53 | 4.8 | 8.0 | 0.00 | 2.03 | 0.33 | 85 | 1015.5 |
| 20260904185512 | 24 | 75 | 1.6 | 8.0 | 0.00 | 2.03 | 0.33 | 85 | 1015.8 |
| 20260904185015 | 25 | 100 | 0.0 | 9.7 | 0.00 | 2.03 | 0.33 | 84 | 1016.0 |
| 20260904184537 | 25 | 9 | 3.2 | 11.3 | 0.00 | 2.03 | 0.33 | 83 | 1016.3 |
| 20260904184017 | 25 | 59 | 4.8 | 16.1 | 0.00 | 2.03 | 0.33 | 85 | 1016.8 |
| 20260904183516 | 25 | 99 | 3.2 | 16.1 | 0.00 | 2.03 | 0.33 | 84 | 1017.0 |
| 20260904183040 | 25 | 117 | 4.8 | 11.3 | 0.00 | 2.03 | 0.33 | 85 | 1017.2 |
| 20260904182516 | 25 | 90 | 4.8 | 11.3 | 0.00 | 2.03 | 0.33 | 85 | 1017.2 |
| 20260904182022 | 25 | 123 | 1.6 | 9.7 | 0.00 | 2.03 | 0.33 | 86 | 1017.2 |
| 20260904181545 | 25 | 155 | 0.0 | 9.7 | 0.00 | 2.03 | 0.33 | 85 | 1017.4 |
| 20260904181013 | 25 | 167 | 1.6 | 12.9 | 0.00 | 2.03 | 0.33 | 83 | 1017.8 |
| 20260904180517 | 25 | 191 | 1.6 | 12.9 | 0.00 | 2.03 | 0.33 | 86 | 1017.7 |
| 20260904180031 | 25 | 136 | 3.2 | 12.9 | 0.00 | 2.03 | 0.33 | 86 | 1017.9 |
| 20260904175516 | 25 | 96 | 1.6 | 12.9 | 0.00 | 2.03 | 0.33 | 90 | 1017.9 |
| 20260904175015 | 25 | 182 | 1.6 | 12.9 | 0.00 | 2.03 | 0.33 | 90 | 1017.9 |
| 20260904174533 | 25 | 154 | 1.6 | 11.3 | 0.00 | 2.03 | 0.33 | 91 | 1017.8 |
| 20260904174019 | 24 | 136 | 1.6 | 11.3 | 0.00 | 2.03 | 0.33 | 93 | 1017.8 |
| 20260904173517 | 24 | 125 | 1.6 | 9.7 | 0.00 | 2.03 | 0.33 | 92 | 1017.7 |
| 20260904173036 | 24 | 120 | 1.6 | 9.7 | 0.00 | 2.03 | 0.33 | 93 | 1017.7 |
| 20260904172516 | 23 | 142 | 0.0 | 9.7 | 0.00 | 2.03 | 0.33 | 93 | 1017.7 |
| 20260904172020 | 23 | 80 | 1.6 | 9.7 | 0.00 | 2.03 | 0.33 | 94 | 1017.7 |
| 20260904171539 | 23 | 123 | 0.0 | 8.0 | 0.00 | 2.03 | 0.33 | 95 | 1017.8 |
| 20260904171020 | 23 | 163 | 1.6 | 9.7 | 0.00 | 2.03 | 0.33 | 96 | 1017.8 |
| 20260904170516 | 23 | 153 | 4.8 | 9.7 | 0.00 | 2.03 | 0.33 | 97 | 1017.8 |
| 20260904170031 | 23 | 199 | 0.0 | 9.7 | 0.00 | 2.03 | 0.33 | 97 | 1017.8 |
| 20260904165512 | 23 | 174 | 0.0 | 12.9 | 0.00 | 2.03 | 0.33 | 99 | 1017.9 |
| 20260904165015 | 23 | 92 | 1.6 | 12.9 | 0.00 | 2.03 | 0.33 | 99 | 1017.9 |
| 20260904164508 | 22 | 132 | 4.8 | 12.9 | 0.00 | 2.03 | 0.33 | 99 | 1017.9 |
| 20260904164005 | 22 | 66 | 3.2 | 12.9 | 0.00 | 2.03 | 0.33 | 99 | 1017.9 |
| 20260904163502 | 22 | 135 | 3.2 | 12.9 | 0.00 | 2.03 | 0.33 | 99 | 1017.9 |
| 20260904163010 | 22 | 116 | 3.2 | 12.9 | 0.03 | 2.03 | 0.33 | 99 | 1018.1 |
| 20260904162504 | 21 | 98 | 4.8 | 11.3 | 0.03 | 2.03 | 0.33 | 99 | 1018.2 |
| 20260904162008 | 21 | 101 | 1.6 | 6.4 | 0.03 | 2.03 | 0.33 | 99 | 1018.0 |
| 20260904161516 | 21 | 78 | 3.2 | 4.8 | 0.05 | 2.03 | 0.33 | 98 | 1017.6 |
| 20260904161011 | 21 | 352 | 0.0 | 0.0 | 0.08 | 2.03 | 0.33 | 99 | 1017.6 |
| 20260904160508 | 21 | 352 | 0.0 | 4.8 | 0.08 | 2.03 | 0.33 | 98 | 1017.4 |
| 20260904160024 | 21 | 352 | 0.0 | 4.8 | 0.08 | 2.03 | 0.33 | 99 | 1017.3 |
| 20260904155512 | 21 | 317 | 0.0 | 4.8 | 0.08 | 2.03 | 0.33 | 98 | 1017.2 |
| 20260904155006 | 21 | 340 | 0.0 | 3.2 | 0.10 | 2.03 | 0.33 | 99 | 1017.2 |
| 20260904154526 | 21 | 323 | 0.0 | 6.4 | 0.10 | 2.03 | 0.33 | 98 | 1017.2 |
| 20260904154018 | 21 | 321 | 1.6 | 6.4 | 0.13 | 2.03 | 0.33 | 98 | 1017.1 |
| 20260904153517 | 20 | 295 | 1.6 | 3.2 | 0.13 | 2.03 | 0.33 | 98 | 1017.3 |
| 20260904153019 | 20 | 295 | 0.0 | 4.8 | 0.10 | 2.01 | 0.30 | 98 | 1017.3 |
| 20260904152510 | 20 | 317 | 0.0 | 4.8 | 0.13 | 2.01 | 0.30 | 98 | 1017.3 |
| 20260904152016 | 20 | 313 | 1.6 | 4.8 | 0.15 | 2.01 | 0.30 | 98 | 1017.4 |
| 20260904151520 | 20 | 259 | 0.0 | 4.8 | 0.15 | 1.98 | 0.28 | 98 | 1017.5 |
| 20260904151006 | 20 | 261 | 0.0 | 9.7 | 0.13 | 1.96 | 0.25 | 98 | 1017.4 |
| 20260904150508 | 20 | 296 | 4.8 | 9.7 | 0.15 | 1.96 | 0.25 | 98 | 1017.3 |
| 20260904150020 | 20 | 273 | 3.2 | 6.4 | 0.15 | 1.96 | 0.25 | 98 | 1017.5 |
| 20260904145507 | 20 | 101 | 0.0 | 4.8 | 0.15 | 1.96 | 0.25 | 98 | 1017.8 |
| 20260904145010 | 20 | 89 | 1.6 | 4.8 | 0.15 | 1.93 | 0.23 | 98 | 1018.0 |
| 20260904144528 | 20 | 94 | 1.6 | 4.8 | 0.15 | 1.93 | 0.23 | 98 | 1017.9 |
| 20260904144017 | 20 | 116 | 0.0 | 4.8 | 0.15 | 1.91 | 0.20 | 98 | 1017.8 |
| 20260904143509 | 20 | 116 | 0.0 | 4.8 | 0.20 | 1.91 | 0.20 | 98 | 1018.0 |
| 20260904143034 | 20 | 115 | 1.6 | 4.8 | 0.20 | 1.91 | 0.20 | 98 | 1017.8 |
| 20260904142517 | 20 | 188 | 1.6 | 4.8 | 0.18 | 1.88 | 0.18 | 98 | 1017.5 |
| 20260904142023 | 20 | 143 | 0.0 | 3.2 | 0.15 | 1.85 | 0.15 | 98 | 1017.6 |
| 20260904141523 | 20 | 144 | 0.0 | 4.8 | 0.13 | 1.83 | 0.13 | 98 | 1017.6 |
| 20260904141013 | 20 | 92 | 1.6 | 11.3 | 0.13 | 1.83 | 0.13 | 98 | 1017.6 |
| 20260904140515 | 20 | 101 | 3.2 | 11.3 | 0.10 | 1.80 | 0.10 | 98 | 1017.6 |
| 20260904140032 | 20 | 111 | 3.2 | 11.3 | 0.10 | 1.80 | 0.10 | 98 | 1017.8 |
| 20260904135515 | 20 | 105 | 4.8 | 11.3 | 0.10 | 1.80 | 0.10 | 97 | 1017.8 |
| 20260904135008 | 20 | 92 | 4.8 | 11.3 | 0.08 | 1.78 | 0.08 | 97 | 1017.7 |
| 20260904134526 | 20 | 97 | 4.8 | 14.5 | 0.08 | 1.78 | 0.08 | 97 | 1017.8 |
| 20260904134008 | 20 | 102 | 3.2 | 14.5 | 0.05 | 1.75 | 0.05 | 97 | 1017.8 |
| 20260904133513 | 20 | 117 | 4.8 | 11.3 | 0.00 | 1.70 | 0.00 | 98 | 1017.6 |
| 20260904133029 | 20 | 122 | 1.6 | 4.8 | 0.00 | 1.70 | 0.00 | 98 | 1017.4 |
| 20260904132516 | 20 | 78 | 1.6 | 6.4 | 0.00 | 1.70 | 0.00 | 98 | 1017.2 |
| 20260904132012 | 20 | 114 | 1.6 | 6.4 | 0.00 | 1.70 | 0.00 | 98 | 1017.2 |
| 20260904131531 | 20 | 96 | 3.2 | 9.7 | 0.00 | 1.70 | 0.00 | 98 | 1017.1 |
| 20260904131017 | 20 | 70 | 3.2 | 9.7 | 0.00 | 1.70 | 0.00 | 98 | 1017.3 |
| 20260904130511 | 20 | 5 | 1.6 | 6.4 | 0.00 | 1.70 | 0.00 | 99 | 1017.1 |
| 20260904130027 | 20 | 5 | 3.2 | 6.4 | 0.00 | 1.70 | 0.00 | 98 | 1017.0 |
| 20260904125514 | 20 | 5 | 0.0 | 4.8 | 0.00 | 1.73 | 0.00 | 98 | 1017.1 |
| 20260904125019 | 20 | 5 | 1.6 | 3.2 | 0.00 | 1.75 | 0.00 | 98 | 1017.2 |
| 20260904124524 | 20 | 5 | 0.0 | 3.2 | 0.00 | 1.91 | 0.00 | 98 | 1017.2 |
| 20260904124012 | 20 | 5 | 0.0 | 3.2 | 0.00 | 2.16 | 0.00 | 98 | 1017.1 |
| 20260904123515 | 20 | 5 | 1.6 | 3.2 | 0.00 | 2.24 | 0.00 | 99 | 1017.2 |
| 20260904123032 | 20 | 283 | 0.0 | 3.2 | 0.00 | 2.31 | 0.00 | 99 | 1017.1 |
| 20260904122514 | 20 | 283 | 1.6 | 4.8 | 0.00 | 2.31 | 0.00 | 98 | 1017.1 |
| 20260904122017 | 20 | 283 | 1.6 | 4.8 | 0.00 | 2.31 | 0.00 | 98 | 1017.1 |
| 20260904121530 | 20 | 283 | 1.6 | 3.2 | 0.00 | 2.31 | 0.00 | 98 | 1017.1 |
| 20260904121014 | 20 | 283 | 0.0 | 3.2 | 0.00 | 2.31 | 0.00 | 99 | 1017.1 |
| 20260904120512 | 20 | 283 | 0.0 | 1.6 | 0.00 | 2.31 | 0.00 | 99 | 1017.3 |
| 20260904120044 | 20 | 283 | 0.0 | 1.6 | 0.00 | 2.31 | 0.00 | 99 | 1017.2 |
| 20260904115518 | 19 | 283 | 0.0 | 1.6 | 0.00 | 2.31 | 0.00 | 98 | 1017.1 |
| 20260904115013 | 19 | 281 | 0.0 | 3.2 | 0.00 | 2.31 | 0.00 | 98 | 1017.1 |
| 20260904114531 | 19 | 281 | 0.0 | 3.2 | 0.00 | 2.31 | 0.00 | 98 | 1017.1 |
| 20260904114016 | 19 | 281 | 0.0 | 4.8 | 0.00 | 2.31 | 0.00 | 98 | 1016.9 |
| 20260904113516 | 19 | 264 | 1.6 | 4.8 | 0.00 | 2.31 | 0.00 | 98 | 1016.9 |
| 20260904113036 | 19 | 242 | 1.6 | 4.8 | 0.00 | 2.31 | 0.00 | 98 | 1017.0 |
| 20260904112516 | 19 | 252 | 0.0 | 6.4 | 0.00 | 2.31 | 0.00 | 98 | 1017.0 |
| 20260904112011 | 19 | 231 | 1.6 | 6.4 | 0.00 | 2.31 | 0.00 | 98 | 1017.0 |
| 20260904111529 | 19 | 224 | 1.6 | 6.4 | 0.00 | 2.31 | 0.00 | 98 | 1017.0 |
| 20260904111014 | 19 | 241 | 3.2 | 4.8 | 0.00 | 2.31 | 0.00 | 98 | 1016.7 |
| 20260904110516 | 19 | 292 | 0.0 | 3.2 | 0.00 | 2.31 | 0.00 | 98 | 1016.6 |
| 20260904110030 | 19 | 292 | 0.0 | 3.2 | 0.00 | 2.31 | 0.00 | 98 | 1016.4 |
| 20260904105505 | 19 | 292 | 1.6 | 3.2 | 0.00 | 2.31 | 0.00 | 98 | 1016.3 |
| 20260904105005 | 19 | 298 | 1.6 | 3.2 | 0.00 | 2.31 | 0.00 | 98 | 1016.2 |
| 20260904104514 | 19 | 342 | 0.0 | 3.2 | 0.00 | 2.31 | 0.00 | 98 | 1016.2 |
| 20260904104011 | 19 | 342 | 1.6 | 3.2 | 0.00 | 2.31 | 0.00 | 98 | 1016.2 |
| 20260904103502 | 19 | 304 | 0.0 | 1.6 | 0.00 | 2.31 | 0.00 | 98 | 1016.1 |
| 20260904103022 | 19 | 53 | 0.0 | 0.0 | 0.00 | 2.31 | 0.00 | 98 | 1016.3 |
| 20260904102511 | 19 | 53 | 0.0 | 0.0 | 0.00 | 2.31 | 0.00 | 98 | 1016.2 |
| 20260904102010 | 19 | 53 | 0.0 | 0.0 | 0.00 | 2.31 | 0.00 | 98 | 1016.3 |
| 20260904101513 | 19 | 53 | 0.0 | 0.0 | 0.00 | 2.31 | 0.00 | 98 | 1016.4 |
| 20260904101010 | 19 | 53 | 0.0 | 0.0 | 0.00 | 2.31 | 0.00 | 98 | 1016.3 |
| 20260904100512 | 19 | 53 | 0.0 | 0.0 | 0.00 | 2.31 | 0.00 | 98 | 1016.3 |
| 20260904100032 | 19 | 53 | 0.0 | 1.6 | 0.00 | 2.31 | 0.00 | 98 | 1016.4 |
| 20260904095508 | 19 | 53 | 0.0 | 1.6 | 0.00 | 2.31 | 0.00 | 98 | 1016.4 |
| 20260904095003 | 19 | 53 | 0.0 | 1.6 | 0.00 | 2.31 | 0.00 | 98 | 1016.4 |
| 20260904094508 | 19 | 53 | 0.0 | 3.2 | 0.00 | 2.31 | 0.00 | 98 | 1016.4 |
| 20260904094001 | 19 | 53 | 0.0 | 3.2 | 0.00 | 2.31 | 0.00 | 98 | 1016.4 |
| 20260904093506 | 19 | 53 | 0.0 | 3.2 | 0.00 | 2.31 | 0.00 | 98 | 1016.4 |
| 20260904093016 | 19 | 53 | 0.0 | 3.2 | 0.00 | 2.31 | 0.00 | 98 | 1016.3 |
| 20260904092510 | 19 | 53 | 0.0 | 3.2 | 0.00 | 2.31 | 0.00 | 98 | 1016.3 |
| 20260904092005 | 19 | 53 | 0.0 | 3.2 | 0.00 | 2.31 | 0.00 | 98 | 1016.4 |
| 20260904091521 | 19 | 53 | 0.0 | 3.2 | 0.00 | 2.31 | 0.00 | 98 | 1016.3 |
| 20260904091012 | 19 | 53 | 0.0 | 4.8 | 0.00 | 2.31 | 0.00 | 98 | 1016.2 |
| 20260904090513 | 19 | 53 | 0.0 | 6.4 | 0.00 | 2.31 | 0.00 | 98 | 1016.1 |
| 20260904090019 | 19 | 13 | 1.6 | 6.4 | 0.00 | 2.31 | 0.00 | 98 | 1016.1 |
| 20260904085511 | 19 | 32 | 1.6 | 4.8 | 0.00 | 2.31 | 0.00 | 98 | 1016.1 |
| 20260904085017 | 19 | 355 | 1.6 | 4.8 | 0.00 | 2.31 | 0.00 | 98 | 1016.2 |